Flag for U.S.A. Weather past 2 weeks in Seattle, Washington, U.S.A.

Now
66 °F

Mostly cloudy.


Feels Like: 66 °F
Forecast: 60 / 70 °F
Wind: 5 mph from South

Location: Seattle Boeing Field

Current Time: Sep 19, 2014 at 5:12:39 AM

Latest Report: Sep 19, 2014 at 4:53 AM


Visibility: 10 mi

Pressure: 30.01 "Hg

Humidity: 73%

Dew point: 57 °F

Location of SeattleLocation

Historic Weather in Seattle — Graph

°F

Seattle temperature yesterday

Maximum temperature yesterday: 71 °F (at 4:53 PM)
Minimum temperature yesterday: 62 °F (at 1:53 AM)
Average temperature yesterday: 66 °F

Past Weeks' High & Low Weather Summary

 TemperatureHumidityPressure
High87 °F (Sep 6, 4:53 PM)88% (Sep 4, 8:00 AM)30.30 "Hg (Sep 4, 8:00 AM)
Low52 °F (Sep 14, 6:53 AM)17% (Sep 11, 4:53 PM)29.70 "Hg (Sep 17, 3:53 PM)
Average67 °F56%29.96 "Hg
* Reported Sep 4 3:53 AM — Sep 19 3:53 AM, Seattle, Weather by CustomWeather, © 2014

Note: Actual official high and low records may vary slightly from our data, if they occured in-between our weather recording intervals... More about our weather records

Advertising

Seattle weather history for previous 24 hours

 ConditionsComfort  
Time TempWeatherWind HumidityBarometerVisibility
3:53 AM
Sep 19
66 °FOvercast.5 mph73%30.00 "Hg10 mi
2:53 AM66 °FOvercast.7 mph73%29.99 "Hg10 mi
1:53 AM66 °FOvercast.5 mph73%29.98 "Hg10 mi
12:53 AM67 °FOvercast.7 mph71%29.98 "Hg10 mi
11:53 PM
Sep 18
66 °FPassing clouds.6 mph73%29.97 "Hg10 mi
10:53 PM65 °FPassing clouds.7 mph76%29.96 "Hg10 mi
10:00 PM66 °FMostly cloudy.12 mph73%29.94 "Hg10 mi
8:53 PM66 °FPassing clouds.8 mph70%29.92 "Hg10 mi
7:53 PM68 °FBroken clouds.8 mph65%29.89 "Hg10 mi
6:53 PM68 °FOvercast.8 mph65%29.88 "Hg10 mi
5:53 PM69 °FMostly cloudy.8 mph63%29.88 "Hg10 mi
4:53 PM71 °FOvercast.13 mph61%29.86 "Hg10 mi
3:53 PM69 °FOvercast.8 mph66%29.85 "Hg10 mi
2:53 PM69 °FMore clouds than sun.10 mph66%29.85 "Hg10 mi
1:53 PM67 °FMore clouds than sun.5 mph68%29.85 "Hg10 mi
12:53 PM67 °FOvercast.7 mph71%29.84 "Hg10 mi
11:53 AM65 °FOvercast.5 mph76%29.83 "Hg10 mi
10:53 AM65 °FMostly cloudy.5 mph78%29.82 "Hg10 mi
9:53 AM65 °FMostly cloudy.6 mph81%29.80 "Hg10 mi
8:53 AM64 °FMostly cloudy.7 mph78%29.79 "Hg10 mi
7:53 AM63 °FMostly cloudy.8 mph84%29.77 "Hg10 mi
6:53 AM63 °FMostly cloudy.6 mph84%29.75 "Hg10 mi
5:53 AM63 °FMostly cloudy.No wind81%29.74 "Hg10 mi
Weather by CustomWeather, © 2014

See weather overviewHow to use our weather pages